{"data":{"norad_id":62822,"epoch":"2026-05-25T04:52:16.551840Z","epoch_age_seconds":60591,"freshness":"FRESH","line1":"1 62822U 25018S   26145.20296935  .00017323  00000+0  59556-3 0  9998","line2":"2 62822  53.1593 314.1449 0001347 105.9667 254.1483 15.30203630 74891","mean_motion":15.3020363,"eccentricity":0.0001347,"inclination_deg":53.1593,"raan_deg":314.1449,"arg_perigee_deg":105.9667,"mean_anomaly_deg":254.1483,"bstar":0.00059556,"rev_number":7489,"period_min":94.105122466609,"perigee_km":474.28108585126,"apogee_km":476.12737597887,"semimajor_km":6853.3412309151,"source":"CELESTRAK","updated_at":"2026-05-25T13:38:19.776413Z"}}